Location: Moscow
(55.7500°N, 37.5830°E)
Time: 01:18:03
(UTC+03:00)

Vanguard 3 - Pass Details

Date: 02 December 2021
Orbit: 508 x 3260 km, 33.3° (Epoch: 17 January)

Event Time Altitude Azimuth Distance (km) Brightness Sun altitude
Rises 05:30:56 0° 230° (SW) 7,220 - -24.7°
Exits shadow 05:32:15 - 228° (SW) 6,983 11.5 -24.5°
Reaches altitude 10° 05:36:54 10° 221° (SW) 6,159 11.3 -23.9°
Maximum altitude 05:51:22 29° 172° (S) 4,224 10.9 -21.8°
Drops below altitude 10° 06:02:27 10° 121° (ESE) 4,687 12.0 -20.3°
Sets 06:06:11 0° 110° (ESE) 5,306 12.9 -19.8°
